Find Starlink 30328

NORAD ID: 57638 Int'l Des: 2023-122 Owner: SPXS Country: US Constellation: starlink operational
LEOCIRCULAR

現在のビュー

3D地球を読み込み中...

About Starlink 30328

Starlink 30328 (NORAD 57638) is a starlink constellation satellite (v2 mini) launched Aug 17, 2023 by SPXS of US. It operates in LEO, CIRCULAR orbit with a mass of 730.00 kg.

次回通過

Passes for default location (London). Set your location on the main map for personalized predictions.

高度履歴

Loading altitude history...

軌道要素

1 57638U 23122G 26265.72535745 .00000376 00000-0 23195-4 0 9998
2 57638 43.0045 48.4372 0001808 235.5140 124.5541 15.27580814172487
Epoch: Sep 22, 2026 • Age: 17 hours

現在のステータス

高度 486.8 km
遠地点 / 近地点 N/A
速度 7.62 km/s
衛星直下点 -17.52°S, 135.91°W
打ち上げ日 Aug 17, 2023
運用期間 3.1 years
タイプ internet

技術仕様

分類 Payload
質量 730.00 kg
乾燥質量 700.00 kg
長さ 0.30 m
スパン 29.00 m
形状 ? Box + pan
製造者 SPXS
バスタイプ Starlink V2M
フェーズステータス In Orbit
所有者/国 SPXS/US

Most Searched